Location: Kershaw
(34.5481°N, 80.5823°W)
Time: 04:30:09
(UTC+00:00)

Transit 2A Rocket - Pass Details

Date: 11 October 2022
Orbit: 589 x 911 km, 66.7° (Epoch: 27 November)

Event Time Altitude Azimuth Distance (km) Brightness Sun altitude
Exits shadow 09:53:53 14° 335° (NNW) 1,682 6.6 -19.5°
Drops below altitude 10° 09:55:00 10° 348° (NNW) 1,930 7.0 -19.2°
Sets 09:57:59 0° 10° (N) 2,860 8.2 -18.6°
